When you browse on this site, cookies collect data to enhance your experience and personalize the content and advertising you see.
Visit our Privacy Policy to learn more. By continuing to use the site, you agree to this use of cookies and data.
  • In Belgien
  • Länderverzeichnis
  • Für 7 Tage
  • Wassertemperatur
  • Satellitenkarten
  • Wetterkarte
  • Widgets
  • user-avatar
    Anmelden

    Stündliche Wetter Wavre

    Heute, 23 Februar, Samstag

    Zeit Temperatur Niederschläge Wind Luftdruck Luftfeuchtigkeit
    00:00 +7°C° 0 mm 3 m/S 771 mmHg 91%
    01:00 +7°C° 0 mm 3 m/S 771 mmHg 91%
    02:00 +7°C° 0 mm 2 m/S 771 mmHg 90%
    03:00 +6°C° 0 mm 2 m/S 771 mmHg 90%
    04:00 +6°C° 0 mm 2 m/S 771 mmHg 90%
    05:00 +6°C° 0 mm 2 m/S 771 mmHg 90%
    06:00 +5°C° 0 mm 2 m/S 772 mmHg 91%
    07:00 +6°C° 0 mm 2 m/S 771 mmHg 87%
    08:00 +7°C° 0 mm 3 m/S 771 mmHg 84%
    09:00 +7°C° 0 mm 3 m/S 771 mmHg 80%
    10:00 +9°C° 0 mm 3 m/S 771 mmHg 73%
    11:00 +11°C° 0 mm 3 m/S 771 mmHg 65%
    12:00 +12°C° 0 mm 3 m/S 771 mmHg 57%
    13:00 +13°C° 0 mm 3 m/S 771 mmHg 55%
    14:00 +13°C° 0 mm 3 m/S 770 mmHg 52%
    15:00 +15°C° 0 mm 2 m/S 770 mmHg 49%
    16:00 +13°C° 0 mm 2 m/S 770 mmHg 53%
    17:00 +10°C° 0 mm 2 m/S 770 mmHg 57%
    18:00 +9°C° 0 mm 2 m/S 770 mmHg 60%
    19:00 +8°C° 0 mm 2 m/S 770 mmHg 59%
    20:00 +7°C° 0 mm 2 m/S 771 mmHg 58%
    21:00 +6°C° 0 mm 2 m/S 771 mmHg 58%
    22:00 +6°C° 0 mm 2 m/S 771 mmHg 55%
    23:00 +5°C° 0 mm 2 m/S 771 mmHg 52%

    Morgen, 24 Februar, Sonntag

    Zeit Temperatur Niederschläge Wind Luftdruck Luftfeuchtigkeit
    00:00 +5°C° 0 mm 2 m/S 771 mmHg 49%
    01:00 +5°C° 0 mm 2 m/S 771 mmHg 48%
    02:00 +4°C° 0 mm 2 m/S 771 mmHg 46%
    03:00 +4°C° 0 mm 2 m/S 771 mmHg 45%
    04:00 +5°C° 0 mm 1 m/S 771 mmHg 43%
    05:00 +5°C° 0 mm 1 m/S 771 mmHg 42%
    06:00 +5°C° 0 mm 1 m/S 771 mmHg 41%
    07:00 +6°C° 0 mm 1 m/S 771 mmHg 40%
    08:00 +7°C° 0 mm 1 m/S 772 mmHg 39%
    09:00 +8°C° 0 mm 1 m/S 772 mmHg 38%
    10:00 +10°C° 0 mm 1 m/S 772 mmHg 36%
    11:00 +12°C° 0 mm 1 m/S 772 mmHg 33%
    12:00 +14°C° 0 mm 1 m/S 772 mmHg 31%
    13:00 +14°C° 0 mm 2 m/S 772 mmHg 32%
    14:00 +14°C° 0 mm 2 m/S 772 mmHg 34%
    15:00 +15°C° 0 mm 2 m/S 771 mmHg 36%
    16:00 +13°C° 0 mm 2 m/S 771 mmHg 40%
    17:00 +12°C° 0 mm 2 m/S 772 mmHg 44%
    18:00 +9°C° 0 mm 2 m/S 772 mmHg 48%
    19:00 +9°C° 0 mm 2 m/S 772 mmHg 50%
    20:00 +8°C° 0 mm 2 m/S 772 mmHg 52%
    21:00 +9°C° 0 mm 1 m/S 772 mmHg 55%
    22:00 +8°C° 0 mm 1 m/S 772 mmHg 55%
    23:00 +8°C° 0 mm 1 m/S 772 mmHg 55%

    übermorgen, 25 Februar, Montag

    Zeit Temperatur Niederschläge Wind Luftdruck Luftfeuchtigkeit
    00:00 +8°C° 0 mm 1 m/S 773 mmHg 56%
    01:00 +7°C° 0 mm 1 m/S 772 mmHg 55%
    02:00 +7°C° 0 mm 1 m/S 772 mmHg 54%
    03:00 +7°C° 0 mm 1 m/S 772 mmHg 53%
    04:00 +7°C° 0 mm 1 m/S 772 mmHg 53%
    05:00 +7°C° 0 mm 1 m/S 772 mmHg 52%
    06:00 +5°C° 0 mm 0 m/S 773 mmHg 52%
    07:00 +7°C° 0 mm 1 m/S 773 mmHg 51%
    08:00 +9°C° 0 mm 1 m/S 773 mmHg 51%
    09:00 +10°C° 0 mm 1 m/S 773 mmHg 50%
    10:00 +12°C° 0 mm 1 m/S 773 mmHg 47%
    11:00 +13°C° 0 mm 1 m/S 773 mmHg 43%
    12:00 +15°C° 0 mm 1 m/S 772 mmHg 40%
    13:00 +16°C° 0 mm 1 m/S 772 mmHg 42%
    14:00 +16°C° 0 mm 1 m/S 772 mmHg 44%
    15:00 +17°C° 0 mm 2 m/S 771 mmHg 45%
    16:00 +15°C° 0 mm 2 m/S 771 mmHg 51%
    17:00 +13°C° 0 mm 2 m/S 771 mmHg 56%
    18:00 +10°C° 0 mm 2 m/S 772 mmHg 62%
    19:00 +10°C° 0 mm 2 m/S 772 mmHg 63%
    20:00 +9°C° 0 mm 2 m/S 772 mmHg 65%
    21:00 +9°C° 0 mm 2 m/S 772 mmHg 66%
    22:00 +9°C° 0 mm 2 m/S 772 mmHg 68%
    23:00 +8°C° 0 mm 2 m/S 771 mmHg 69%

    26 Februar, Dienstag

    Zeit Temperatur Niederschläge Wind Luftdruck Luftfeuchtigkeit
    00:00 +8°C° 0 mm 2 m/S 771 mmHg 71%
    01:00 +9°C° 0 mm 1 m/S 771 mmHg 71%
    02:00 +9°C° 0 mm 1 m/S 771 mmHg 71%
    03:00 +8°C° 0 mm 1 m/S 770 mmHg 70%
    04:00 +8°C° 0 mm 1 m/S 770 mmHg 70%
    05:00 +8°C° 0 mm 1 m/S 770 mmHg 70%
    06:00 +8°C° 0 mm 1 m/S 770 mmHg 70%
    07:00 +9°C° 0 mm 1 m/S 770 mmHg 66%
    08:00 +10°C° 0 mm 1 m/S 770 mmHg 63%
    09:00 +12°C° 0 mm 1 m/S 770 mmHg 59%
    10:00 +13°C° 0 mm 1 m/S 770 mmHg 55%
    11:00 +15°C° 0 mm 1 m/S 770 mmHg 51%
    12:00 +16°C° 0 mm 1 m/S 770 mmHg 46%
    13:00 +18°C° 0 mm 1 m/S 770 mmHg 47%
    14:00 +17°C° 0 mm 2 m/S 769 mmHg 48%
    15:00 +17°C° 0 mm 2 m/S 769 mmHg 48%
    16:00 +16°C° 0 mm 2 m/S 769 mmHg 54%
    17:00 +14°C° 0 mm 2 m/S 769 mmHg 59%
    18:00 +12°C° 0 mm 2 m/S 769 mmHg 65%
    19:00 +12°C° 0 mm 2 m/S 768 mmHg 67%
    20:00 +10°C° 0 mm 2 m/S 768 mmHg 68%
    21:00 +10°C° 0 mm 2 m/S 768 mmHg 70%
    22:00 +9°C° 0 mm 2 m/S 768 mmHg 71%
    23:00 +9°C° 0 mm 2 m/S 768 mmHg 71%

    27 Februar, Mittwoch

    Zeit Temperatur Niederschläge Wind Luftdruck Luftfeuchtigkeit
    00:00 +9°C° 0 mm 2 m/S 768 mmHg 71%
    01:00 +8°C° 0 mm 2 m/S 767 mmHg 69%
    02:00 +8°C° 0 mm 2 m/S 767 mmHg 68%
    03:00 +8°C° 0 mm 2 m/S 767 mmHg 66%
    04:00 +8°C° 0 mm 2 m/S 766 mmHg 64%
    05:00 +7°C° 0 mm 2 m/S 766 mmHg 63%
    06:00 +7°C° 0 mm 2 m/S 766 mmHg 61%
    07:00 +8°C° 0 mm 2 m/S 766 mmHg 59%
    08:00 +9°C° 0 mm 2 m/S 766 mmHg 57%
    09:00 +10°C° 0 mm 2 m/S 766 mmHg 54%
    10:00 +13°C° 0 mm 2 m/S 765 mmHg 52%
    11:00 +15°C° 0 mm 2 m/S 765 mmHg 50%
    12:00 +16°C° 0 mm 3 m/S 765 mmHg 47%
    13:00 +17°C° 0 mm 3 m/S 764 mmHg 49%
    14:00 +17°C° 0 mm 3 m/S 764 mmHg 52%
    15:00 +17°C° 0 mm 3 m/S 763 mmHg 54%
    16:00 +14°C° 0 mm 3 m/S 763 mmHg 61%
    17:00 +13°C° 0 mm 3 m/S 763 mmHg 67%
    18:00 +11°C° 0 mm 3 m/S 763 mmHg 74%
    19:00 +10°C° 0 mm 3 m/S 763 mmHg 77%
    20:00 +10°C° 0 mm 3 m/S 763 mmHg 80%
    21:00 +9°C° 0 mm 3 m/S 763 mmHg 83%
    22:00 +9°C° 0 mm 3 m/S 762 mmHg 85%
    23:00 +8°C° 0 mm 4 m/S 762 mmHg 87%

    28 Februar, Donnerstag

    Zeit Temperatur Niederschläge Wind Luftdruck Luftfeuchtigkeit
    00:00 +7°C° 0 mm 4 m/S 762 mmHg 89%
    01:00 +7°C° 0 mm 4 m/S 762 mmHg 90%
    02:00 +7°C° 0 mm 4 m/S 762 mmHg 91%
    03:00 +6°C° 0 mm 4 m/S 762 mmHg 92%
    04:00 +6°C° 0 mm 4 m/S 762 mmHg 93%
    05:00 +6°C° 0 mm 4 m/S 762 mmHg 94%
    06:00 +6°C° 0 mm 4 m/S 762 mmHg 95%
    07:00 +7°C° 0 mm 5 m/S 762 mmHg 93%
    08:00 +7°C° 0 mm 5 m/S 763 mmHg 91%
    09:00 +8°C° 0 mm 5 m/S 763 mmHg 88%
    10:00 +9°C° 0 mm 5 m/S 763 mmHg 87%
    11:00 +9°C° 0 mm 5 m/S 764 mmHg 85%
    12:00 +10°C° 0 mm 5 m/S 764 mmHg 83%
    13:00 +11°C° 0 mm 4 m/S 764 mmHg 83%
    14:00 +11°C° 0 mm 4 m/S 764 mmHg 82%
    15:00 +11°C° 0 mm 4 m/S 764 mmHg 81%
    16:00 +10°C° 0 mm 3 m/S 764 mmHg 82%
    17:00 +10°C° 0 mm 3 m/S 765 mmHg 82%
    18:00 +9°C° 0 mm 2 m/S 765 mmHg 83%
    19:00 +8°C° 0 mm 2 m/S 765 mmHg 85%
    20:00 +7°C° 0 mm 2 m/S 765 mmHg 88%
    21:00 +7°C° 0 mm 2 m/S 765 mmHg 91%
    22:00 +7°C° 0 mm 2 m/S 765 mmHg 91%
    23:00 +7°C° 0 mm 2 m/S 765 mmHg 91%
    Mehr zeigen